Vision — WDF6306 — position and weather

sailwx.info

Track history (hours):
 
Tides and Currents Weather Stations Pressure Air Temp Water Temp Dewpoint Dewpoint Depression Visibility Wind Speed Wind Dir Waves Ship Positions

Vision

More information available from US FCC via Universal Licensing System and Coast Guard Vessel Documentation Center.

Last reported at 2014-Jul-30 01:32 UTC. Time now 2014-Jul-30 07:12 UTC.
Position N 39°57' W 125°28'.

Length 199 m; draft 6.7 m.

Type: Tow > 200 m length. MMSI: 366904000.

Date/timePositionNaut miles runAvg speedWind from/ knotsBaromVisibWave heightAir tempDewpointWater temp
2014-Jul-30 01:32N 39°57' W 125°28'2611.2
2014-Jul-29 23:13N 39°33' W 125°16'2211.3
2014-Jul-29 21:14N 39°13' W 125°04'2011.8
2014-Jul-29 19:32N 38°54' W 124°56'2512.2
2014-Jul-29 17:31N 38°31' W 124°43'1212.0
2014-Jul-29 16:33N 38°20' W 124°38'1211.7
2014-Jul-29 15:33N 38°12' W 124°27'1111.4
2014-Jul-29 14:33N 38°05' W 124°16'1111.2
2014-Jul-29 13:33N 37°58' W 124°05'1111.0
2014-Jul-29 12:33N 37°50' W 123°55'1111.3
2014-Jul-29 11:33N 37°43' W 123°44'1010.5
2014-Jul-29 10:33N 37°36' W 123°34'1110.6
2014-Jul-29 09:33N 37°34' W 123°21'1212.0
2014-Jul-29 08:33N 37°34' W 123°06'1212.1
2014-Jul-29 07:33N 37°40' W 122°53'1211.6
2014-Jul-29 06:33N 37°46' W 122°40'1110.6
2014-Jul-29 05:33N 37°50' W 122°28'10 9.5
2014-Jul-29 04:33N 37°59' W 122°26'1212.3
2014-Jul-29 03:33N 38°03' W 122°11'3 0.5
2014-Jul-28 22:16N 38°02' W 122°08'0 0.0
2014-Jul-28 21:28N 38°02' W 122°08'0 0.0
2014-Jul-28 20:28N 38°02' W 122°08'0 0.0
2014-Jul-28 18:22N 38°02' W 122°08'0 0.0
2014-Jul-28 17:28N 38°02' W 122°08'0 0.0
2014-Jul-28 16:28N 38°02' W 122°08'0 0.0
2014-Jul-28 15:28N 38°02' W 122°08'0 0.0
2014-Jul-28 14:28N 38°02' W 122°08'0 0.0
2014-Jul-28 13:28N 38°02' W 122°08'0 0.0
2014-Jul-28 12:16N 38°02' W 122°08'0 0.0
2014-Jul-28 11:16N 38°02' W 122°08'0 0.0
2014-Jul-28 10:28N 38°02' W 122°08'0 0.0
2014-Jul-28 09:28N 38°02' W 122°08'0 0.0
2014-Jul-28 08:28N 38°02' W 122°08'0 0.0
2014-Jul-28 07:22N 38°02' W 122°08'0 0.0
2014-Jul-28 06:28N 38°02' W 122°08'0 0.0
2014-Jul-28 05:22N 38°02' W 122°08'0 0.0
2014-Jul-28 04:28N 38°02' W 122°08'0 0.0
2014-Jul-28 03:28N 38°02' W 122°08'0 0.0
2014-Jul-28 02:28N 38°02' W 122°08'0 0.0
2014-Jul-28 01:28N 38°02' W 122°08'0 0.0
2014-Jul-28 00:22N 38°02' W 122°08'0 0.0
2014-Jul-27 23:04N 38°02' W 122°08'0 0.0
2014-Jul-27 22:28N 38°02' W 122°08'0 0.0
2014-Jul-27 21:28N 38°02' W 122°08'0 0.0
2014-Jul-27 20:16N 38°02' W 122°08'0 0.0
2014-Jul-27 19:28N 38°02' W 122°08'0 0.0
2014-Jul-27 18:16N 38°02' W 122°08'0 0.0
2014-Jul-27 17:15N 38°02' W 122°08'0 0.0
2014-Jul-27 16:33N 38°02' W 122°08'2 2.3
2014-Jul-27 15:33N 38°03' W 122°11'7 7.4
2014-Jul-27 14:33N 38°03' W 122°20'8 7.6
2014-Jul-27 13:33N 37°57' W 122°27'7 7.0
2014-Jul-27 12:33N 37°51' W 122°25'8 8.1
2014-Jul-27 11:33N 37°47' W 122°34'10 9.7
2014-Jul-27 10:33N 37°42' W 122°45'10 9.6
2014-Jul-27 09:33N 37°36' W 122°55'9 8.9
2014-Jul-27 08:33N 37°32' W 123°05'9 9.0
2014-Jul-27 07:33N 37°32' W 123°16'9 9.3
2014-Jul-27 06:33N 37°33' W 123°28'10 9.4
2014-Jul-27 05:27N 37°39' W 123°39'9 9.8
2014-Jul-27 04:33N 37°45' W 123°47'1512.0
2014-Jul-27 03:18N 37°53' W 124°02'911.9
2014-Jul-27 02:32N 37°59' W 124°12'1612.4
2014-Jul-27 01:12N 38°11' W 124°26'  
2014-Jul-24 17:31N 48°15' W 125°17'1111.4
2014-Jul-24 16:33N 48°25' W 125°11'10 9.6
2014-Jul-24 15:33N 48°30' W 124°59'1312.7
2014-Jul-24 14:33N 48°29' W 124°40'1414.1
2014-Jul-24 13:33N 48°24' W 124°20'1414.3
2014-Jul-24 12:34N 48°19' W 124°01'1413.8
2014-Jul-24 11:33N 48°16' W 123°40'1212.0
2014-Jul-24 10:33N 48°10' W 123°24'9 9.4
2014-Jul-24 09:33N 48°14' W 123°11'1212.0
2014-Jul-24 08:33N 48°21' W 122°57'1111.2
2014-Jul-24 07:33N 48°29' W 122°44'6 6.3
2014-Jul-24 06:33N 48°31' W 122°35'1 0.6
2014-Jul-24 05:33N 48°31' W 122°35'0 0.0
2014-Jul-24 04:31N 48°31' W 122°35'0 0.0
2014-Jul-24 03:31N 48°31' W 122°35'0 0.0
2014-Jul-24 02:31N 48°31' W 122°35'0 0.0
2014-Jul-24 01:31N 48°31' W 122°35'0 0.0
2014-Jul-24 00:31N 48°31' W 122°35'0 0.0
2014-Jul-23 23:31N 48°31' W 122°35'0 0.0
2014-Jul-23 22:31N 48°31' W 122°35'0 0.0
2014-Jul-23 21:31N 48°31' W 122°35'0 0.0
2014-Jul-23 20:31N 48°31' W 122°35'0 0.0
2014-Jul-23 19:31N 48°31' W 122°35'0 0.0
2014-Jul-23 18:31N 48°31' W 122°35'0 0.0
2014-Jul-23 17:31N 48°31' W 122°35'0 0.0
2014-Jul-23 16:31N 48°31' W 122°35'0 0.0
2014-Jul-23 15:31N 48°31' W 122°35'0 0.0
2014-Jul-23 14:25N 48°31' W 122°35'0 0.0
2014-Jul-23 13:31N 48°31' W 122°35'0 0.0
2014-Jul-23 12:31N 48°31' W 122°35'0 0.0
2014-Jul-23 11:31N 48°31' W 122°35'0 0.0
2014-Jul-23 10:31N 48°31' W 122°35'0 0.0
2014-Jul-23 09:31N 48°31' W 122°35'0 0.0
2014-Jul-23 08:31N 48°31' W 122°35'0 0.0
2014-Jul-23 07:31N 48°31' W 122°35'0 0.0
2014-Jul-23 06:31N 48°31' W 122°35'0 0.0
2014-Jul-23 05:31N 48°31' W 122°35'0 0.0
2014-Jul-23 04:31N 48°31' W 122°35'0 0.0
2014-Jul-23 03:31N 48°31' W 122°35'0 0.0
2014-Jul-23 02:31N 48°31' W 122°35'0 0.0
2014-Jul-23 01:31N 48°31' W 122°35'0 0.0
2014-Jul-23 00:31N 48°31' W 122°35'0 0.0
2014-Jul-22 23:31N 48°31' W 122°35'0 0.0
2014-Jul-22 22:31N 48°31' W 122°35'0 0.0
2014-Jul-22 21:31N 48°31' W 122°35'0 0.0
2014-Jul-22 20:31N 48°31' W 122°35'0 0.0
2014-Jul-22 19:31N 48°31' W 122°35'0 0.0
2014-Jul-22 18:31N 48°31' W 122°35'0 0.0
2014-Jul-22 17:31N 48°31' W 122°35'0 0.0
2014-Jul-22 16:25N 48°31' W 122°35'0 0.0
2014-Jul-22 15:25N 48°31' W 122°35'0 0.0
2014-Jul-22 14:28N 48°31' W 122°35'0 0.0
2014-Jul-22 13:31N 48°31' W 122°35'0 0.0
2014-Jul-22 12:31N 48°31' W 122°35'0 0.0
2014-Jul-22 11:31N 48°31' W 122°35'0 0.0
2014-Jul-22 10:28N 48°31' W 122°35'0 0.0
2014-Jul-22 09:31N 48°31' W 122°35'0 0.0
2014-Jul-22 08:31N 48°31' W 122°35'0 0.0
2014-Jul-22 07:31N 48°31' W 122°35'0 0.0
2014-Jul-22 06:31N 48°31' W 122°35'0 0.0
2014-Jul-22 05:31N 48°31' W 122°35'0 0.0
2014-Jul-22 04:33N 48°31' W 122°35'1 1.0
2014-Jul-22 03:28N 48°31' W 122°34'0 0.1
2014-Jul-22 02:28N 48°31' W 122°34'0 0.1
2014-Jul-22 01:28N 48°31' W 122°34'0 0.0
2014-Jul-22 00:28N 48°31' W 122°34'0 0.0
2014-Jul-21 23:31N 48°31' W 122°34'0 0.0
2014-Jul-21 22:28N 48°31' W 122°34'0 0.1
2014-Jul-21 21:31N 48°31' W 122°34'0 0.1
2014-Jul-21 20:31N 48°31' W 122°34'0 0.0
2014-Jul-21 20:16N 48°31' W 122°34'0 0.0
2014-Jul-21 19:31N 48°31' W 122°34'0 0.2
2014-Jul-21 18:22N 48°31' W 122°34'2 3.0
2014-Jul-21 17:34N 48°31' W 122°38'1211.7
2014-Jul-21 16:33N 48°23' W 122°50'1312.6
2014-Jul-21 15:33N 48°16' W 123°06'811.6
2014-Jul-21 14:49N 48°12' W 123°17'310.8
2014-Jul-21 14:33N 48°10' W 123°21'9 8.6
2014-Jul-21 13:33N 48°13' W 123°33'8 8.2
2014-Jul-21 12:33N 48°13' W 123°45'8 8.0
2014-Jul-21 11:33N 48°13' W 123°57'8 8.1
2014-Jul-21 10:33N 48°17' W 124°08'5 4.6
2014-Jul-21 09:33N 48°19' W 124°14'5 4.7
2014-Jul-21 08:26N 48°21' W 124°21'137 6.5
2014-Jul-20 11:26N 46°04' W 124°37'1112.3
2014-Jul-20 10:33N 46°10' W 124°24'1212.2
2014-Jul-20 09:33N 46°14' W 124°07'1212.1
2014-Jul-20 08:33N 46°12' W 123°50'3 2.6
2014-Jul-20 07:31N 46°13' W 123°47'0 0.1
2014-Jul-20 06:31N 46°13' W 123°47'0 0.2
2014-Jul-20 05:19N 46°13' W 123°46'0 0.3
2014-Jul-20 04:31N 46°13' W 123°46'0 0.1
2014-Jul-20 03:31N 46°13' W 123°46'0 0.0
2014-Jul-20 02:31N 46°13' W 123°46'  
Track history (hours):
 
Tides and Currents Weather Stations Pressure Air Temp Water Temp Dewpoint Dewpoint Depression Visibility Wind Speed Wind Dir Waves Ship Positions

Vision

More information available from US FCC via Universal Licensing System and Coast Guard Vessel Documentation Center.

Last reported at 2014-Jul-30 01:32 UTC. Time now 2014-Jul-30 07:12 UTC.
Position N 39°57' W 125°28'.

Length 199 m; draft 6.7 m.

Type: Tow > 200 m length. MMSI: 366904000.

Date/timePositionNaut miles runAvg speedWind from/ knotsBaromVisibWave heightAir tempDewpointWater temp
2014-Jul-30 01:32N 39°57' W 125°28'2611.2
2014-Jul-29 23:13N 39°33' W 125°16'2211.3
2014-Jul-29 21:14N 39°13' W 125°04'2011.8
2014-Jul-29 19:32N 38°54' W 124°56'2512.2
2014-Jul-29 17:31N 38°31' W 124°43'1212.0
2014-Jul-29 16:33N 38°20' W 124°38'1211.7
2014-Jul-29 15:33N 38°12' W 124°27'1111.4
2014-Jul-29 14:33N 38°05' W 124°16'1111.2
2014-Jul-29 13:33N 37°58' W 124°05'1111.0
2014-Jul-29 12:33N 37°50' W 123°55'1111.3
2014-Jul-29 11:33N 37°43' W 123°44'1010.5
2014-Jul-29 10:33N 37°36' W 123°34'1110.6
2014-Jul-29 09:33N 37°34' W 123°21'1212.0
2014-Jul-29 08:33N 37°34' W 123°06'1212.1
2014-Jul-29 07:33N 37°40' W 122°53'1211.6
2014-Jul-29 06:33N 37°46' W 122°40'1110.6
2014-Jul-29 05:33N 37°50' W 122°28'10 9.5
2014-Jul-29 04:33N 37°59' W 122°26'1212.3
2014-Jul-29 03:33N 38°03' W 122°11'3 0.5
2014-Jul-28 22:16N 38°02' W 122°08'0 0.0
2014-Jul-28 21:28N 38°02' W 122°08'0 0.0
2014-Jul-28 20:28N 38°02' W 122°08'0 0.0
2014-Jul-28 18:22N 38°02' W 122°08'0 0.0
2014-Jul-28 17:28N 38°02' W 122°08'0 0.0
2014-Jul-28 16:28N 38°02' W 122°08'0 0.0
2014-Jul-28 15:28N 38°02' W 122°08'0 0.0
2014-Jul-28 14:28N 38°02' W 122°08'0 0.0
2014-Jul-28 13:28N 38°02' W 122°08'0 0.0
2014-Jul-28 12:16N 38°02' W 122°08'0 0.0
2014-Jul-28 11:16N 38°02' W 122°08'0 0.0
2014-Jul-28 10:28N 38°02' W 122°08'0 0.0
2014-Jul-28 09:28N 38°02' W 122°08'0 0.0
2014-Jul-28 08:28N 38°02' W 122°08'0 0.0
2014-Jul-28 07:22N 38°02' W 122°08'0 0.0
2014-Jul-28 06:28N 38°02' W 122°08'0 0.0
2014-Jul-28 05:22N 38°02' W 122°08'0 0.0
2014-Jul-28 04:28N 38°02' W 122°08'0 0.0
2014-Jul-28 03:28N 38°02' W 122°08'0 0.0
2014-Jul-28 02:28N 38°02' W 122°08'0 0.0
2014-Jul-28 01:28N 38°02' W 122°08'0 0.0
2014-Jul-28 00:22N 38°02' W 122°08'0 0.0
2014-Jul-27 23:04N 38°02' W 122°08'0 0.0
2014-Jul-27 22:28N 38°02' W 122°08'0 0.0
2014-Jul-27 21:28N 38°02' W 122°08'0 0.0
2014-Jul-27 20:16N 38°02' W 122°08'0 0.0
2014-Jul-27 19:28N 38°02' W 122°08'0 0.0
2014-Jul-27 18:16N 38°02' W 122°08'0 0.0
2014-Jul-27 17:15N 38°02' W 122°08'0 0.0
2014-Jul-27 16:33N 38°02' W 122°08'2 2.3
2014-Jul-27 15:33N 38°03' W 122°11'7 7.4
2014-Jul-27 14:33N 38°03' W 122°20'8 7.6
2014-Jul-27 13:33N 37°57' W 122°27'7 7.0
2014-Jul-27 12:33N 37°51' W 122°25'8 8.1
2014-Jul-27 11:33N 37°47' W 122°34'10 9.7
2014-Jul-27 10:33N 37°42' W 122°45'10 9.6
2014-Jul-27 09:33N 37°36' W 122°55'9 8.9
2014-Jul-27 08:33N 37°32' W 123°05'9 9.0
2014-Jul-27 07:33N 37°32' W 123°16'9 9.3
2014-Jul-27 06:33N 37°33' W 123°28'10 9.4
2014-Jul-27 05:27N 37°39' W 123°39'9 9.8
2014-Jul-27 04:33N 37°45' W 123°47'1512.0
2014-Jul-27 03:18N 37°53' W 124°02'911.9
2014-Jul-27 02:32N 37°59' W 124°12'1612.4
2014-Jul-27 01:12N 38°11' W 124°26'  
2014-Jul-24 17:31N 48°15' W 125°17'1111.4
2014-Jul-24 16:33N 48°25' W 125°11'10 9.6
2014-Jul-24 15:33N 48°30' W 124°59'1312.7
2014-Jul-24 14:33N 48°29' W 124°40'1414.1
2014-Jul-24 13:33N 48°24' W 124°20'1414.3
2014-Jul-24 12:34N 48°19' W 124°01'1413.8
2014-Jul-24 11:33N 48°16' W 123°40'1212.0
2014-Jul-24 10:33N 48°10' W 123°24'9 9.4
2014-Jul-24 09:33N 48°14' W 123°11'1212.0
2014-Jul-24 08:33N 48°21' W 122°57'1111.2
2014-Jul-24 07:33N 48°29' W 122°44'6 6.3
2014-Jul-24 06:33N 48°31' W 122°35'1 0.6
2014-Jul-24 05:33N 48°31' W 122°35'0 0.0
2014-Jul-24 04:31N 48°31' W 122°35'0 0.0
2014-Jul-24 03:31N 48°31' W 122°35'0 0.0
2014-Jul-24 02:31N 48°31' W 122°35'0 0.0
2014-Jul-24 01:31N 48°31' W 122°35'0 0.0
2014-Jul-24 00:31N 48°31' W 122°35'0 0.0
2014-Jul-23 23:31N 48°31' W 122°35'0 0.0
2014-Jul-23 22:31N 48°31' W 122°35'0 0.0
2014-Jul-23 21:31N 48°31' W 122°35'0 0.0
2014-Jul-23 20:31N 48°31' W 122°35'0 0.0
2014-Jul-23 19:31N 48°31' W 122°35'0 0.0
2014-Jul-23 18:31N 48°31' W 122°35'0 0.0
2014-Jul-23 17:31N 48°31' W 122°35'0 0.0
2014-Jul-23 16:31N 48°31' W 122°35'0 0.0
2014-Jul-23 15:31N 48°31' W 122°35'0 0.0
2014-Jul-23 14:25N 48°31' W 122°35'0 0.0
2014-Jul-23 13:31N 48°31' W 122°35'0 0.0
2014-Jul-23 12:31N 48°31' W 122°35'0 0.0
2014-Jul-23 11:31N 48°31' W 122°35'0 0.0
2014-Jul-23 10:31N 48°31' W 122°35'0 0.0
2014-Jul-23 09:31N 48°31' W 122°35'0 0.0
2014-Jul-23 08:31N 48°31' W 122°35'0 0.0
2014-Jul-23 07:31N 48°31' W 122°35'0 0.0
2014-Jul-23 06:31N 48°31' W 122°35'0 0.0
2014-Jul-23 05:31N 48°31' W 122°35'0 0.0
2014-Jul-23 04:31N 48°31' W 122°35'0 0.0
2014-Jul-23 03:31N 48°31' W 122°35'0 0.0
2014-Jul-23 02:31N 48°31' W 122°35'0 0.0
2014-Jul-23 01:31N 48°31' W 122°35'0 0.0
2014-Jul-23 00:31N 48°31' W 122°35'0 0.0
2014-Jul-22 23:31N 48°31' W 122°35'0 0.0
2014-Jul-22 22:31N 48°31' W 122°35'0 0.0
2014-Jul-22 21:31N 48°31' W 122°35'0 0.0
2014-Jul-22 20:31N 48°31' W 122°35'0 0.0
2014-Jul-22 19:31N 48°31' W 122°35'0 0.0
2014-Jul-22 18:31N 48°31' W 122°35'0 0.0
2014-Jul-22 17:31N 48°31' W 122°35'0 0.0
2014-Jul-22 16:25N 48°31' W 122°35'0 0.0
2014-Jul-22 15:25N 48°31' W 122°35'0 0.0
2014-Jul-22 14:28N 48°31' W 122°35'0 0.0
2014-Jul-22 13:31N 48°31' W 122°35'0 0.0
2014-Jul-22 12:31N 48°31' W 122°35'0 0.0
2014-Jul-22 11:31N 48°31' W 122°35'0 0.0
2014-Jul-22 10:28N 48°31' W 122°35'0 0.0
2014-Jul-22 09:31N 48°31' W 122°35'0 0.0
2014-Jul-22 08:31N 48°31' W 122°35'0 0.0
2014-Jul-22 07:31N 48°31' W 122°35'0 0.0
2014-Jul-22 06:31N 48°31' W 122°35'0 0.0
2014-Jul-22 05:31N 48°31' W 122°35'0 0.0
2014-Jul-22 04:33N 48°31' W 122°35'1 1.0
2014-Jul-22 03:28N 48°31' W 122°34'0 0.1
2014-Jul-22 02:28N 48°31' W 122°34'0 0.1
2014-Jul-22 01:28N 48°31' W 122°34'0 0.0
2014-Jul-22 00:28N 48°31' W 122°34'0 0.0
2014-Jul-21 23:31N 48°31' W 122°34'0 0.0
2014-Jul-21 22:28N 48°31' W 122°34'0 0.1
2014-Jul-21 21:31N 48°31' W 122°34'0 0.1
2014-Jul-21 20:31N 48°31' W 122°34'0 0.0
2014-Jul-21 20:16N 48°31' W 122°34'0 0.0
2014-Jul-21 19:31N 48°31' W 122°34'0 0.2
2014-Jul-21 18:22N 48°31' W 122°34'2 3.0
2014-Jul-21 17:34N 48°31' W 122°38'1211.7
2014-Jul-21 16:33N 48°23' W 122°50'1312.6
2014-Jul-21 15:33N 48°16' W 123°06'811.6
2014-Jul-21 14:49N 48°12' W 123°17'310.8
2014-Jul-21 14:33N 48°10' W 123°21'9 8.6
2014-Jul-21 13:33N 48°13' W 123°33'8 8.2
2014-Jul-21 12:33N 48°13' W 123°45'8 8.0
2014-Jul-21 11:33N 48°13' W 123°57'8 8.1
2014-Jul-21 10:33N 48°17' W 124°08'5 4.6
2014-Jul-21 09:33N 48°19' W 124°14'5 4.7
2014-Jul-21 08:26N 48°21' W 124°21'137 6.5
2014-Jul-20 11:26N 46°04' W 124°37'1112.3
2014-Jul-20 10:33N 46°10' W 124°24'1212.2
2014-Jul-20 09:33N 46°14' W 124°07'1212.1
2014-Jul-20 08:33N 46°12' W 123°50'3 2.6
2014-Jul-20 07:31N 46°13' W 123°47'0 0.1
2014-Jul-20 06:31N 46°13' W 123°47'0 0.2
2014-Jul-20 05:19N 46°13' W 123°46'0 0.3
2014-Jul-20 04:31N 46°13' W 123°46'0 0.1
2014-Jul-20 03:31N 46°13' W 123°46'0 0.0
2014-Jul-20 02:31N 46°13' W 123°46'  

Dump ship's entire track history